Home   Weather   Nürtingen   Past weeks

Flag for Germany Past Weather in Nürtingen, Baden-Württemberg, Germany — Yesterday and Last 2 Weeks

Now
30 °F

Passing clouds.


Feels Like: 23 °F
Forecast: 22 / 36 °F
Wind: 7 mph from Northeast

Location: Stuttgart-Echterdingen

Current Time: Dec 3, 2016 at 8:06:00 am

Latest Report: Dec 3, 2016 at 7:20 am


Visibility: N/A

Pressure: 30.15 "Hg

Humidity: 93%

Dew Point: 28 °F

Location of NürtingenLocation

Past Weather in Nürtingen — Graph

°F

Nürtingen Temperature Yesterday

Maximum temperature yesterday: 43 °F (at 12:50 pm)
Minimum temperature yesterday: 36 °F (at 12:20 am)
Average temperature yesterday: 39 °F

High & Low Weather Summary for the Past Weeks

 TemperatureHumidityPressure
High61 °F (Nov 20, 1:50 pm)100% (Nov 20, 12:50 am)30.51 "Hg (Nov 20, 12:50 am)
Low19 °F (Nov 30, 5:20 am)31% (Dec 1, 1:50 pm)29.59 "Hg (Nov 18, 9:50 am)
Average40 °F83%30.04 "Hg
* Reported Nov 18 6:20 am — Dec 3 6:50 am, Nürtingen, Weather by CustomWeather, © 2016

Note: Actual official high and low records may vary slightly from our data, if they occured in-between our weather recording intervals... More about our weather records

Advertising

Nürtingen Weather History for the Previous 24 Hours

Scroll right to see more
 ConditionsComfort  
Time TempWeatherWind HumidityBarometerVisibility
6:50 am
Sat, Dec 3
32 °FPassing clouds.8 mph87%30.15 "HgN/A
6:20 am34 °FPassing clouds.6 mph87%30.15 "HgN/A
5:50 am36 °FPartly cloudy.8 mph87%30.15 "HgN/A
5:20 am36 °FPassing clouds.7 mph87%30.15 "HgN/A
4:50 am36 °FPassing clouds.7 mph93%30.15 "HgN/A
4:20 am34 °FPassing clouds.8 mph93%30.15 "HgN/A
3:50 am34 °FPartly cloudy.3 mph93%30.15 "HgN/A
3:20 am36 °FPartly cloudy.5 mph93%30.15 "HgN/A
2:20 am37 °FPartly cloudy.7 mph93%30.15 "HgN/A
1:50 am37 °FLight rain. Passing clouds.8 mph100%30.15 "Hg4 mi
1:20 am39 °FLight rain. Fog.7 mph93%30.15 "Hg3 mi
12:50 am39 °FFog.6 mph93%30.15 "Hg3 mi
12:20 am39 °FPassing clouds.5 mph93%30.15 "Hg4 mi
11:50 pm
Fri, Dec 2
39 °FPassing clouds.5 mph93%30.15 "Hg4 mi
11:20 pm39 °FPassing clouds.3 mph93%30.15 "Hg4 mi
10:50 pm39 °FPassing clouds.3 mph93%30.15 "Hg4 mi
10:20 pm39 °FPassing clouds.5 mph93%30.15 "Hg4 mi
9:50 pm39 °FPartly cloudy.1 mph93%30.15 "Hg4 mi
9:20 pm39 °FPartly cloudy.1 mph93%30.15 "Hg6 mi
8:50 pm39 °FPassing clouds.3 mph93%30.15 "HgN/A
8:20 pm41 °FPassing clouds.3 mph93%30.15 "HgN/A
7:50 pm39 °FPassing clouds.3 mph100%30.15 "HgN/A
7:20 pm41 °FPassing clouds.2 mph93%30.15 "HgN/A
6:50 pm41 °FPassing clouds.5 mph93%30.15 "HgN/A
6:20 pm41 °FLight rain. Passing clouds.1 mph87%30.15 "HgN/A
5:50 pm41 °FLight rain. Passing clouds.No wind87%30.15 "HgN/A
5:20 pm41 °FLight rain. Passing clouds.3 mph87%30.15 "HgN/A
4:50 pm41 °FLight rain. Passing clouds.6 mph87%30.15 "HgN/A
4:20 pm41 °FLight rain. Partly sunny.6 mph87%30.15 "HgN/A
3:50 pm43 °FLight rain. Partly sunny.6 mph81%30.15 "HgN/A
3:20 pm43 °FLight rain. Partly sunny.7 mph81%30.15 "HgN/A
2:50 pm43 °FPartly sunny.8 mph81%30.15 "HgN/A
2:20 pm43 °FPartly sunny.5 mph81%30.15 "HgN/A
1:50 pm43 °FPartly sunny.5 mph81%30.15 "HgN/A
1:20 pm43 °FPartly sunny.7 mph81%30.15 "HgN/A
12:50 pm43 °FPartly sunny.3 mph81%30.15 "HgN/A
12:20 pm41 °FPartly sunny.3 mph81%30.18 "HgN/A
11:50 am41 °FPartly sunny.3 mph81%30.18 "HgN/A
11:20 am41 °FPartly sunny.6 mph81%30.18 "HgN/A
10:50 am41 °FPartly sunny.3 mph81%30.18 "HgN/A
10:20 am39 °FLight rain. Partly sunny.5 mph87%30.18 "HgN/A
9:50 am39 °FLight rain. Partly sunny.3 mph87%30.18 "HgN/A
9:20 am39 °FLight rain. Partly sunny.6 mph87%30.18 "HgN/A
8:50 am37 °FLight rain. Partly sunny.7 mph87%30.18 "HgN/A
8:20 am37 °FPartly sunny.6 mph87%30.18 "HgN/A
Weather by CustomWeather, © 2016

See weather overviewHow to use our weather pages